Location: Albany
(35.0000°S, 118.0000°E)
Time: 04:24:43
(UTC-05:00)

Transit 2A - Visible Passes

Search period start: 27 February 2017 00:00
Search period end: 09 March 2017 00:00
Orbit: 602 x 958 km, 66.7° (Epoch: 26 February)

Date Brightness Start Highest point End Pass type
(mag) Time Alt. Az. Time Alt. Az. Time Alt. Az.
27 Feb 9.0 11:43:22 13° S 11:43:22 13° S 11:44:07 10° SSE visible
28 Feb 9.1 11:10:07 11° SSE 11:10:07 11° SSE 11:10:15 10° SSE visible
01 Mar 9.1 12:17:20 11° SSW 12:17:20 11° SSW 12:17:46 10° S visible
02 Mar 9.1 11:44:01 12° S 11:44:01 12° S 11:44:30 10° S visible
03 Mar 9.2 11:10:42 11° S 11:10:42 11° S 11:10:58 10° S visible
07 Mar 9.2 10:37:24 11° S 10:37:24 11° S 10:37:35 10° S visible
08 Mar 9.1 10:03:47 11° S 10:03:47 11° S 10:04:05 10° S visible
